< < Back
Terminal Aerodrome Forecast


Current Version              Previous Versions:   1  2  3  4  5  6  7  8  9  

Terminal Aerodrome Forecast

185
FTUS44 KMOB 242300
TAFPNS
TAF
KPNS 242336Z 2500/2524 16004KT P6SM SCT130 BKN250
     FM251500 01013KT P6SM VCSH BKN130 BKN250
     FM251800 36011KT 6SM -SHRA OVC100=

Latest METAR

570
SAUS70 KWBC 250100 RRE
MTRPNS
METAR KPNS 250053Z 00000KT 8SM CLR 17/17 A2993 RMK AO2 SLP136
T01670167


USA.gov is the U.S. government's official web portal to all federal, state and local government web resources and services.